Powrót do katalogu

COSMOS 1275 DEB

AktywnyPO
NORAD 12737·DEBRIS·🇷🇺 Russia

Wystrzelony Jun 4, 1981 z Plesetsk Cosmodrome

Loading…

Następne Przeloty (najbliższe 24 godziny)

TLE

ŚwieżeSource: Space-Track

Epoka: Sep 14, 2026, 05:07 UTC

1 12737U 81053CE  26257.21332271  .00000730  00000-0  71116-3 0  9999
2 12737  82.9822 211.9898 0144560 224.0787 203.4180 13.73696091238984

Śledź COSMOS 1275 DEB w czasie rzeczywistym z AllMySat

Download on the App Store